Date,TemperatureHighF,TemperatureAvgF,TemperatureLowF,DewpointHighF,DewpointAvgF,DewpointLowF,HumidityHigh,HumidityAvg,HumidityLow,PressureMaxIn,PressureMinIn,WindSpeedMaxMPH,WindSpeedAvgMPH,GustSpeedMaxMPH,PrecipitationSumIn
2013-1-1,21.0,14.1,6.0,17.0,7.9,1.0,88,77,58,30.40,30.24,0,0,0,0.00
2013-1-2,30.0,20.3,8.0,23.0,15.7,4.0,91,82,69,30.31,30.17,6,0,0,0.00
2013-1-3,37.0,24.8,14.0,27.0,20.8,11.0,94,85,65,30.47,30.30,5,0,0,0.00
2013-1-4,40.0,26.2,11.0,29.0,21.1,9.0,93,82,61,30.45,30.26,8,1,0,0.00
2013-1-5,45.0,34.8,25.0,36.0,29.5,21.0,88,81,66,30.26,30.04,11,4,0,0.00
2013-1-6,39.0,28.3,20.0,25.0,21.6,17.0,88,77,55,30.42,30.20,5,1,0,0.00
2013-1-7,50.0,37.4,28.0,30.0,26.0,21.0,78,64,46,30.29,30.04,13,4,0,0.00
2013-1-8,54.0,40.9,30.0,35.0,31.5,25.0,83,70,48,30.21,29.93,12,3,0,0.00
2013-1-9,55.0,36.2,24.0,41.0,30.0,22.0,94,80,49,30.47,30.20,0,0,0,0.00
2013-1-10,43.0,39.9,36.0,42.0,35.3,28.0,100,84,59,30.38,29.73,6,1,0,0.00
2013-1-11,56.0,50.6,41.0,48.0,45.3,27.0,96,83,39,29.75,29.52,13,6,0,0.00
2013-1-12,50.0,27.8,19.0,34.0,20.1,11.0,87,73,40,30.15,29.70,5,1,0,0.00
2013-1-13,27.0,17.5,11.0,13.0,9.7,6.0,81,72,50,30.43,30.14,4,1,0,0.00
2013-1-14,32.0,18.0,7.0,15.0,9.7,3.0,90,72,40,30.59,30.42,3,0,0,0.00
2013-1-15,33.0,21.2,11.0,19.0,12.6,8.0,92,72,38,30.47,30.21,3,0,0,0.00
2013-1-16,51.0,32.0,20.0,35.0,23.1,12.0,90,71,52,30.25,30.03,7,1,0,0.00
2013-1-17,47.0,33.2,22.0,33.0,27.3,20.0,94,80,57,30.52,30.24,3,0,0,0.00
2013-1-18,60.0,44.1,27.0,34.0,31.2,24.0,92,63,37,30.40,29.98,17,8,0,0.00
2013-1-19,63.0,44.8,35.0,34.0,31.1,25.0,83,61,30,30.29,29.94,8,1,0,0.00
2013-1-20,35.0,24.9,16.0,26.0,12.7,9.0,78,61,40,30.48,30.29,5,1,0,0.00
2013-1-21,18.0,15.7,11.0,13.0,7.2,0.0,88,70,45,30.53,30.45,5,1,0,0.00
2013-1-29,39.0,36.0,33.0,37.0,34.2,32.0,95,93,92,29.63,29.50,7,2,0,0.00
2013-1-30,33.0,26.1,17.0,32.0,22.7,12.0,95,87,74,30.01,29.54,8,1,0,0.00
2013-1-31,19.0,12.4,3.0,11.0,5.4,-2.0,81,73,67,30.56,30.13,4,1,0,0.00
2013-2-1,26.0,14.1,0.0,19.0,7.7,-4.0,87,76,64,30.56,30.20,8,1,0,0.00
2013-2-2,42.0,32.4,24.0,36.0,26.5,17.0,89,79,70,30.27,30.10,5,0,0,0.00
2013-2-3,46.0,36.4,27.0,32.0,25.6,19.0,87,67,43,30.30,29.86,9,2,0,0.00
2013-2-4,36.0,29.9,20.0,31.0,25.5,18.0,92,84,72,30.03,29.81,8,2,0,0.00
2013-2-5,56.0,35.3,20.0,38.0,27.3,18.0,93,76,41,30.14,29.94,6,1,0,0.00
2013-2-6,61.0,43.4,23.0,42.0,32.8,21.0,94,70,41,30.14,29.88,13,3,0,0.00
2013-2-7,52.0,42.7,32.0,42.0,36.8,27.0,90,80,66,30.24,29.86,7,3,0,0.00
2013-2-8,43.0,33.1,28.0,31.0,27.2,25.0,90,80,60,30.38,30.24,8,2,0,0.00
2013-2-9,49.0,38.5,28.0,36.0,31.7,25.0,92,77,59,30.26,29.75,14,5,0,0.00
2013-2-10,51.0,43.0,35.0,47.0,35.1,25.0,94,74,53,29.87,29.41,18,7,0,0.00
2013-2-11,47.0,35.9,24.0,28.0,24.9,19.0,86,66,44,30.20,29.88,1,0,0,0.00
2013-2-12,45.0,29.6,16.0,30.0,21.9,14.0,93,75,47,30.22,29.98,6,0,0,0.00
2013-2-13,56.0,36.8,21.0,31.0,24.3,18.0,91,64,32,29.98,29.80,4,0,0,0.00
2013-2-14,52.0,40.7,31.0,35.0,28.7,23.0,85,64,41,30.20,29.83,6,1,0,0.00
2013-2-15,37.0,27.7,15.0,30.0,18.4,11.0,88,69,46,30.44,30.20,8,1,0,0.00
2013-2-16,34.0,26.5,14.0,25.0,20.0,11.0,92,77,60,30.37,30.10,11,3,0,0.00
2013-2-17,58.0,40.8,22.0,35.0,27.0,17.0,88,60,39,30.10,29.65,11,4,0,0.00
2013-2-18,53.0,40.4,24.0,39.0,29.7,17.0,85,66,47,30.09,29.53,10,3,0,0.00
2013-2-19,32.0,22.3,13.0,18.0,10.1,4.0,85,62,32,30.43,30.09,4,1,0,0.00
2013-2-20,25.0,18.1,10.0,13.0,8.2,2.0,74,65,53,30.47,30.27,1,0,0,0.00
2013-2-21,25.0,22.4,20.0,23.0,18.2,12.0,93,84,64,30.30,29.84,8,1,0,0.00
2013-2-22,27.0,21.7,10.0,21.0,17.3,6.0,93,83,69,30.13,29.84,1,0,0,0.00
2013-2-23,36.0,18.8,0.0,24.0,12.7,-3.0,90,78,59,30.13,29.98,7,1,0,0.00
2013-2-24,43.0,28.2,8.0,31.0,21.8,5.0,92,77,54,30.09,29.97,4,0,0,0.00
2013-2-25,37.0,34.0,29.0,31.0,28.3,25.0,84,80,76,30.04,29.80,7,3,0,0.00
2013-2-26,35.0,32.9,30.0,32.0,30.3,28.0,94,90,80,29.90,29.68,9,6,0,0.00
2013-2-27,37.0,31.7,28.0,29.0,27.3,25.0,94,84,68,30.09,29.87,6,2,0,0.00
2013-2-28,34.0,30.8,28.0,29.0,26.3,24.0,92,83,75,30.24,30.09,6,2,0,0.00
2013-3-1,33.0,27.6,21.0,26.0,22.6,17.0,88,81,70,30.38,30.23,6,2,0,0.00
2013-3-2,33.0,26.8,22.0,23.0,19.7,16.0,84,75,63,30.42,30.22,4,1,0,0.00
2013-3-3,43.0,33.9,26.0,32.0,25.5,20.0,80,72,60,30.22,29.80,10,4,0,0.00
2013-3-4,46.0,38.2,33.0,35.0,31.3,27.0,92,76,63,30.00,29.71,6,1,0,0.00
2013-3-5,38.0,31.7,26.0,33.0,24.2,19.0,92,74,61,30.40,30.00,6,2,0,0.00
2013-3-6,38.0,29.9,20.0,26.0,21.9,16.0,86,72,57,30.49,28.33,4,1,0,0.00
2013-3-7,48.0,33.7,22.0,32.0,25.5,18.0,89,73,51,30.35,30.18,7,1,0,0.00
2013-3-8,55.0,42.4,31.0,40.0,33.8,26.0,86,72,54,30.25,29.98,9,2,0,0.00
2013-3-9,53.0,48.6,44.0,52.0,45.3,39.0,95,89,75,29.98,29.58,9,3,0,0.00
2013-3-10,53.0,37.9,28.0,51.0,36.4,25.0,96,94,90,29.91,29.56,8,4,0,0.00
2013-3-11,37.0,28.8,25.0,26.0,23.8,21.0,91,82,61,30.06,29.89,6,1,0,0.00
2013-3-12,45.0,32.9,24.0,32.0,25.8,22.0,92,77,53,30.37,30.05,6,1,0,0.00
2013-3-13,44.0,30.9,20.0,26.0,21.8,18.0,91,71,42,30.52,30.35,3,0,0,0.00
2013-3-14,73.0,48.7,29.0,43.0,33.3,23.0,80,58,30,30.35,30.05,8,1,0,0.00
2013-3-15,82.0,53.5,30.0,48.0,37.7,28.0,95,63,24,30.10,29.63,11,1,0,0.00
2013-3-16,52.0,40.1,34.0,43.0,33.7,27.0,89,78,66,30.13,29.73,9,5,0,0.00
2013-3-17,43.0,35.0,30.0,32.0,28.6,25.0,88,77,64,30.12,29.80,7,1,0,0.00
2013-3-18,54.0,40.7,28.0,39.0,28.6,17.0,94,67,29,30.09,29.77,6,1,0,0.00
2013-3-19,42.0,35.1,26.0,34.0,23.2,13.0,92,63,31,30.28,30.09,7,1,0,0.00
2013-3-20,40.0,29.2,19.0,31.0,16.6,10.0,93,62,32,30.45,30.17,6,2,0,0.00
2013-3-21,30.0,25.8,18.0,25.0,19.3,12.0,88,76,60,30.17,29.97,7,1,0,0.00
2013-3-22,38.0,33.0,29.0,29.0,25.6,23.0,83,74,64,30.06,29.98,4,0,0,0.00
2013-3-23,42.0,35.1,30.0,33.0,28.5,26.0,94,78,54,30.09,29.96,6,3,0,0.00
2013-3-24,33.0,29.2,24.0,30.0,26.0,19.0,94,88,77,30.11,29.94,8,4,0,0.00
2013-3-25,34.0,28.8,23.0,30.0,25.0,19.0,92,85,79,30.37,30.10,7,2,0,0.00
2013-3-26,39.0,29.4,20.0,25.0,22.6,17.0,89,77,55,30.45,30.32,4,0,0,0.00
2013-3-27,53.0,36.6,25.0,35.0,28.3,20.0,88,74,47,30.35,30.22,10,2,0,0.00
2013-3-28,64.0,45.9,30.0,42.0,34.8,27.0,95,69,38,30.28,30.14,5,0,0,0.00
2013-3-29,70.0,52.9,34.0,43.0,36.8,31.0,93,60,28,30.23,30.08,9,2,0,0.00
2013-3-30,68.0,55.3,49.0,57.0,46.2,-99.9,93,75,53,30.09,29.84,8,1,0,0.00
2013-3-31,64.0,52.7,41.0,49.0,40.2,29.0,92,66,28,30.03,29.92,8,2,0,0.00
2013-4-1,47.0,37.9,29.0,35.0,24.0,17.0,88,59,35,30.33,30.03,8,4,0,0.00
2013-4-2,52.0,36.1,20.0,28.0,21.5,17.0,91,59,30,30.40,30.28,4,0,0,0.00
2013-4-3,52.0,40.5,29.0,31.0,26.3,23.0,81,59,37,30.41,30.26,5,1,0,0.00
2013-4-4,66.0,46.0,27.0,36.0,29.9,24.0,91,59,27,30.27,30.05,3,0,0,0.00
2013-4-5,71.0,53.4,37.0,43.0,38.0,32.0,83,59,34,30.19,29.82,11,4,0,0.00
2013-4-6,76.0,62.9,52.0,50.0,43.8,38.0,67,51,31,29.82,29.61,16,5,0,0.00
2013-4-7,74.0,58.0,38.0,55.0,44.5,34.0,91,65,36,29.86,29.64,17,4,0,0.00
2013-4-8,74.0,61.7,50.0,66.0,57.1,48.0,95,86,70,29.72,29.63,10,3,0,0.00
2013-4-9,76.0,65.8,49.0,64.0,58.8,45.0,91,79,66,29.77,29.60,15,6,0,0.00
2013-4-10,48.0,41.6,38.0,45.0,40.1,36.0,95,94,90,29.93,29.67,6,1,0,0.00
2013-4-11,39.0,36.2,34.0,37.0,31.5,29.0,95,83,72,29.82,29.73,2,0,0,0.00
2013-4-12,51.0,39.9,33.0,36.0,32.0,28.0,85,74,55,30.04,29.78,2,0,0,0.00
2013-4-13,62.0,44.9,28.0,44.0,35.8,26.0,94,73,50,30.09,29.69,8,2,0,0.00
2013-4-14,71.0,60.7,48.0,55.0,47.5,36.0,82,63,49,29.70,29.44,20,7,0,0.00
2013-4-15,54.0,47.1,42.0,38.0,33.6,29.0,80,60,42,30.04,29.70,5,1,0,0.00
2013-4-16,50.0,43.8,37.0,37.0,34.0,32.0,82,69,58,30.19,30.02,7,1,0,0.00
2013-4-17,48.0,45.7,43.0,47.0,42.9,37.0,96,90,70,30.12,29.65,6,1,0,0.00
2013-4-18,42.0,38.9,35.0,41.0,36.4,30.0,96,91,80,29.95,29.60,6,2,0,0.00
2013-4-19,53.0,40.5,31.0,32.0,28.7,26.0,84,65,40,30.13,29.92,3,1,0,0.00
2013-4-20,56.0,40.9,25.0,34.0,29.1,23.0,94,66,38,30.29,30.13,7,1,0,0.00
2013-4-21,67.0,55.5,42.0,46.0,40.1,32.0,71,57,44,30.21,30.08,12,4,0,0.00
2013-4-22,66.0,55.4,41.0,52.0,44.3,39.0,94,68,47,30.11,29.91,12,4,0,0.00
2013-4-23,41.0,36.2,32.0,39.0,33.6,30.0,95,91,81,30.21,30.06,8,3,0,0.00
2013-4-24,57.0,41.7,27.0,37.0,30.7,24.0,91,68,38,30.29,30.15,6,1,0,0.00
2013-4-25,69.0,52.0,31.0,42.0,36.5,29.0,94,61,31,30.32,30.11,9,2,0,0.00
2013-4-26,59.0,54.1,50.0,51.0,46.2,40.0,90,76,51,30.22,30.12,12,4,0,0.00
2013-4-27,60.0,52.1,45.0,50.0,47.2,43.0,93,84,66,30.21,30.00,1,0,0,0.00
2013-4-28,76.0,57.4,36.0,56.0,48.0,34.0,96,74,43,30.01,29.75,9,3,0,0.00
2013-4-29,84.0,71.0,56.0,64.0,59.0,52.0,87,67,46,29.77,29.55,12,5,0,0.00
2013-4-30,84.0,75.7,67.0,59.0,56.0,52.0,63,51,39,29.75,29.57,17,8,0,0.00
2013-5-1,73.0,60.2,42.0,55.0,48.7,36.0,83,67,49,30.24,29.75,8,3,0,0.00
2013-5-2,41.0,37.1,34.0,39.0,35.4,32.0,95,94,84,30.46,30.22,9,5,0,0.00
2013-5-3,41.0,38.9,37.0,37.0,35.8,34.0,93,89,79,30.10,29.96,7,4,0,0.00
2013-5-4,50.0,42.8,36.0,48.0,40.9,34.0,95,93,88,30.07,29.88,6,3,0,0.00
2013-5-5,55.0,49.4,45.0,51.0,46.7,43.0,95,91,84,30.15,30.06,4,1,0,0.00
2013-5-6,68.0,56.1,50.0,58.0,51.7,48.0,95,86,68,30.13,30.02,3,0,0,0.00
2013-5-7,76.0,59.0,42.0,59.0,49.2,41.0,96,74,41,30.09,29.95,6,0,0,0.00
2013-5-8,76.0,64.0,50.0,61.0,56.2,47.0,92,77,55,29.96,29.85,12,3,0,0.00
2013-5-9,71.0,62.9,57.0,63.0,58.9,54.0,95,87,70,29.91,29.79,1,0,0,0.00
2013-5-10,71.0,58.3,50.0,55.0,49.9,-99.9,94,79,49,30.05,29.91,5,1,0,0.00
2013-5-11,69.0,56.0,45.0,48.0,37.8,-99.9,95,58,27,30.24,30.03,8,2,0,0.00
2013-5-12,68.0,51.0,33.0,40.0,31.9,26.0,92,55,23,30.29,30.13,1,0,0,0.00
2013-5-13,79.0,62.2,42.0,57.0,47.3,37.0,93,63,34,30.16,29.89,9,3,0,0.00
2013-5-14,96.0,77.5,58.0,58.0,53.3,47.0,87,49,21,29.88,29.70,15,5,0,0.00
2013-5-15,88.0,75.8,61.0,66.0,59.3,52.0,80,58,39,29.83,29.72,11,3,0,0.00
2013-5-16,83.0,67.8,60.0,66.0,43.0,-99.9,94,73,50,29.84,29.74,6,1,0,0.00
2013-5-17,80.0,68.1,57.0,66.0,56.6,-99.9,94,78,56,29.90,29.81,5,1,0,0.00
2013-5-18,84.0,73.1,58.0,70.0,64.6,56.0,95,76,59,29.89,29.67,9,3,0,0.00
2013-5-19,78.0,66.1,61.0,72.0,63.0,60.0,95,90,76,29.74,29.59,10,2,0,0.00
2013-5-20,80.0,73.1,62.0,68.0,62.0,56.0,92,69,53,29.69,29.56,8,3,0,0.00
2013-5-21,74.0,66.7,57.0,58.0,52.9,49.0,86,62,46,29.72,29.62,4,1,0,0.00
2013-5-22,67.0,59.7,53.0,55.0,51.2,48.0,87,74,61,29.93,29.70,1,0,0,0.00
2013-5-23,70.0,60.0,53.0,58.0,52.7,49.0,89,77,60,30.22,29.93,1,0,0,0.00
2013-5-24,73.0,60.9,44.0,56.0,49.5,42.0,95,70,44,30.31,30.10,11,3,0,0.00
2013-5-25,85.0,72.4,61.0,67.0,60.0,48.0,79,66,51,30.13,29.95,11,2,0,0.00
2013-5-26,85.0,76.5,68.0,71.0,67.6,64.0,89,75,59,29.99,29.81,10,3,0,0.00
2013-5-27,76.0,73.1,71.0,70.0,66.2,64.0,87,79,75,29.86,29.59,11,6,0,0.00
2013-5-28,82.0,72.9,66.0,75.0,68.6,61.0,95,87,77,29.74,29.59,9,3,0,0.00
2013-5-29,80.0,74.3,66.0,72.0,67.4,63.0,91,80,71,29.73,29.56,14,7,0,0.00
2013-5-30,74.0,66.9,63.0,67.0,62.8,60.0,95,87,75,29.68,29.51,13,3,0,0.00
2013-5-31,79.0,68.5,63.0,69.0,64.1,59.0,93,86,69,29.73,29.55,16,1,0,0.00
2013-6-1,67.0,63.2,57.0,65.0,55.3,-99.9,93,78,68,29.97,29.67,2,0,0,0.00
2013-6-2,68.0,58.9,53.0,56.0,51.6,49.0,90,77,55,30.09,29.96,1,0,0,0.00
2013-6-3,75.0,61.3,47.0,59.0,52.9,46.0,96,76,53,30.06,29.85,8,2,0,0.00
2013-6-4,76.0,67.8,61.0,67.0,61.3,56.0,88,80,72,29.95,29.85,10,3,0,0.00
2013-6-5,68.0,64.4,61.0,64.0,62.0,59.0,95,92,82,29.96,29.88,1,0,0,0.00
2013-6-6,75.0,64.3,53.0,61.0,57.3,52.0,96,79,57,29.96,29.89,1,0,0,0.00
2013-6-7,76.0,63.2,53.0,60.0,55.2,52.0,96,77,51,30.00,29.88,0,0,0,0.00
2013-6-8,79.0,67.4,54.0,63.0,57.7,52.0,92,73,55,29.92,29.70,10,4,0,0.00
2013-6-9,74.0,67.1,62.0,65.0,61.8,59.0,95,84,66,29.80,29.74,5,0,0,0.00
2013-6-10,84.0,70.2,57.0,68.0,61.4,55.0,94,76,45,29.87,29.77,3,0,0,0.00
2013-6-11,91.0,79.7,69.0,70.0,66.9,64.0,91,67,43,29.82,29.69,9,2,0,0.00
2013-6-12,94.0,83.5,71.0,78.0,71.0,59.0,79,67,48,29.91,29.67,9,3,0,0.00
2013-6-13,84.0,71.0,59.0,67.0,60.9,55.0,88,72,47,30.03,29.91,1,0,0,0.00
2013-6-14,88.0,75.8,62.0,72.0,66.5,60.0,93,74,54,29.99,29.82,10,4,0,0.00
2013-6-15,86.0,76.2,67.0,75.0,69.2,64.0,94,80,59,29.92,29.84,9,1,0,0.00
2013-6-16,83.0,72.2,65.0,74.0,68.9,64.0,96,89,74,29.94,29.88,2,0,0,0.00
2013-6-17,87.0,75.2,67.0,75.0,68.4,64.0,96,81,50,29.96,29.87,1,0,0,0.00
2013-6-18,85.0,73.1,65.0,73.0,65.0,61.0,95,77,46,29.99,29.92,0,0,0,0.00
2013-6-19,87.0,75.0,63.0,69.0,65.3,61.0,95,74,51,30.00,29.89,8,1,0,0.00
2013-6-20,90.0,77.2,68.0,75.0,69.3,65.0,92,78,60,29.95,29.81,12,4,0,0.00
2013-6-22,93.0,88.4,82.0,76.0,71.9,68.0,73,59,51,29.91,29.76,12,4,0,0.00
2013-6-23,84.0,77.2,68.0,77.0,71.0,64.0,93,81,71,29.93,29.67,21,2,0,0.00
2013-6-24,88.0,80.8,73.0,74.0,70.2,68.0,86,71,57,29.92,29.72,6,1,0,0.00
2013-6-25,90.0,81.6,72.0,76.0,71.7,68.0,93,73,59,29.81,29.64,14,5,0,0.00
2013-6-26,94.0,83.3,71.0,76.0,71.8,66.0,93,70,42,29.83,29.62,8,1,0,0.00
2013-6-27,77.0,71.2,65.0,74.0,69.2,64.0,96,94,90,29.95,29.83,1,0,0,0.00
2013-6-28,85.0,72.3,66.0,74.0,67.7,63.0,96,87,53,29.91,29.83,1,0,0,0.00
2013-6-29,82.0,71.2,62.0,67.0,62.3,58.0,91,75,53,29.87,29.78,5,0,0,0.00
2013-6-30,80.0,69.1,57.0,64.0,59.9,55.0,95,75,53,30.03,29.87,1,0,0,0.00
2013-7-1,84.0,69.2,55.0,62.0,57.0,52.0,92,69,37,30.11,30.03,1,0,0,0.00
2013-7-2,83.0,68.2,55.0,66.0,58.5,53.0,95,74,41,30.11,30.02,1,0,0,0.00
2013-7-3,85.0,70.8,58.0,64.0,58.9,56.0,95,69,41,30.04,29.94,2,0,0,0.00
2013-7-4,86.0,72.0,56.0,64.0,58.6,54.0,94,67,37,30.02,29.90,1,0,0,0.00
2013-7-5,90.0,77.4,64.0,67.0,62.7,58.0,82,62,41,29.95,29.83,7,1,0,0.00
2013-7-6,90.0,76.5,66.0,70.0,65.0,61.0,86,69,45,29.90,29.82,7,2,0,0.00
2013-7-7,94.0,82.6,71.0,73.0,68.6,65.0,87,64,47,29.89,29.82,7,2,0,0.00
2013-7-8,95.0,82.2,74.0,75.0,69.3,-99.9,87,68,52,29.95,29.88,7,1,0,0.00
2013-7-9,100.0,85.8,75.0,81.0,73.6,69.0,89,69,46,29.95,29.77,5,0,0,0.00
2013-7-10,91.0,81.1,70.0,74.0,67.2,-99.9,88,67,46,30.00,29.82,3,0,0,0.00
2013-7-11,89.0,75.2,62.0,66.0,62.5,60.0,93,68,40,30.06,29.93,6,1,0,0.00
2013-7-12,90.0,76.9,66.0,70.0,63.9,60.0,83,65,50,30.01,29.91,5,2,0,0.00
2013-7-13,89.0,77.6,69.0,75.0,66.1,60.0,78,68,57,29.98,29.90,5,1,0,0.00
2013-7-14,89.0,76.8,64.0,66.0,63.7,60.0,91,66,43,30.08,29.95,8,2,0,0.00
2013-7-15,89.0,77.4,67.0,71.0,67.4,62.0,89,73,51,30.15,30.06,6,1,0,0.00
2013-7-16,93.0,80.2,68.0,74.0,70.8,66.0,94,75,49,30.20,30.12,2,0,0,0.00
2013-7-17,93.0,81.4,70.0,77.0,71.4,67.0,93,73,49,30.26,30.12,2,0,0,0.00
2013-7-18,97.0,83.1,70.0,75.0,69.9,67.0,94,68,39,30.14,29.91,5,1,0,0.00
2013-7-19,98.0,83.7,69.0,78.0,70.2,65.0,89,66,40,29.93,29.78,5,0,0,0.00
2013-7-20,84.0,74.8,71.0,74.0,69.4,-99.9,95,85,70,29.89,29.81,0,0,0,0.00
2013-7-21,88.0,77.0,69.0,75.0,71.2,68.0,96,84,57,29.88,29.74,3,0,0,0.00
2013-7-22,97.0,80.6,67.0,78.0,71.2,66.0,95,76,45,29.81,29.69,5,0,0,0.00
2013-7-23,74.0,72.1,71.0,72.0,69.0,66.0,93,90,82,29.88,29.74,0,0,0,0.00
2013-7-24,87.0,79.4,67.0,66.0,64.0,61.0,84,61,45,30.01,29.95,1,0,0,0.00
2013-7-25,84.0,70.9,65.0,71.0,65.5,60.0,95,84,58,30.04,29.96,1,0,0,0.00
2013-7-26,86.0,74.1,62.0,73.0,66.4,56.0,96,79,44,30.04,29.94,0,0,0,0.00
2013-7-27,78.0,65.4,53.0,59.0,53.8,49.0,95,70,38,30.10,29.97,0,0,0,0.00
2013-7-28,79.0,65.5,49.0,61.0,52.6,47.0,95,68,36,30.05,29.99,0,0,0,0.00
2013-7-29,67.0,65.0,61.0,66.0,62.6,59.0,96,91,78,30.05,29.96,3,0,0,0.00
2013-7-30,79.0,72.0,67.0,74.0,70.2,66.0,96,94,81,30.03,29.95,0,0,0,0.00
2013-7-31,84.0,74.0,65.0,72.0,68.6,64.0,96,84,64,30.10,30.00,0,0,0,0.00
2013-8-1,89.0,74.9,63.0,73.0,67.5,62.0,96,80,50,30.07,29.90,2,0,0,0.00
2013-8-2,85.0,72.9,65.0,75.0,69.0,62.0,95,88,70,30.00,29.82,5,0,0,0.00
2013-8-3,86.0,75.8,65.0,75.0,69.3,62.0,94,81,68,30.10,29.90,0,0,0,0.00
2013-8-4,74.0,69.4,66.0,70.0,65.4,61.0,95,87,79,30.13,29.98,2,0,0,0.00
2013-8-5,85.0,74.4,69.0,76.0,71.1,67.0,96,90,72,30.01,29.77,0,0,0,0.00
2013-8-6,89.0,79.3,71.0,79.0,73.8,69.0,96,85,66,29.84,29.74,2,0,0,0.00
2013-8-7,89.0,77.9,67.0,78.0,72.1,64.0,96,84,59,29.92,29.73,0,0,0,0.00
2013-8-8,76.0,68.8,63.0,69.0,65.3,61.0,95,89,75,29.96,29.90,0,0,0,0.00
2013-8-9,80.0,72.8,67.0,72.0,68.0,64.0,96,86,66,30.08,29.97,0,0,0,0.00
2013-8-10,83.0,71.5,60.0,69.0,64.0,59.0,96,79,52,30.17,30.05,2,0,0,0.00
2013-8-11,87.0,72.6,58.0,73.0,65.9,57.0,96,81,56,30.10,29.96,1,0,0,0.00
2013-8-12,85.0,72.7,67.0,75.0,69.2,63.0,96,89,67,30.01,29.90,0,0,0,0.00
2013-8-13,80.0,69.4,62.0,68.0,62.3,-99.9,96,82,58,30.11,30.00,0,0,0,0.00
2013-8-14,79.0,67.7,58.0,65.0,57.9,-99.9,95,79,55,30.17,30.05,1,0,0,0.00
2013-8-15,71.0,59.0,61.0,64.0,44.4,-99.9,94,80,77,30.12,30.01,3,0,0,0.00
2013-8-16,77.0,65.5,60.0,65.0,56.8,-99.9,93,80,59,30.15,30.06,3,0,0,0.00
2013-8-17,79.0,64.9,52.0,66.0,57.3,-99.9,96,80,58,30.18,30.08,3,0,0,0.00
2013-8-18,81.0,67.3,54.0,69.0,60.8,52.0,96,81,54,30.16,30.03,2,0,0,0.00
2013-8-19,85.0,66.9,57.0,71.0,53.6,-99.9,96,80,58,30.08,29.95,5,1,0,0.00
2013-8-20,89.0,75.0,64.0,71.0,65.4,-99.9,95,77,53,30.01,29.92,5,0,0,0.00
2013-8-21,90.0,76.8,65.0,75.0,68.9,62.0,94,78,53,30.01,29.92,2,0,0,0.00
2013-8-22,89.0,77.4,68.0,77.0,71.1,66.0,95,82,59,30.05,29.96,0,0,0,0.00
2013-8-23,90.0,77.1,65.0,77.0,70.2,64.0,96,81,53,30.04,29.95,5,0,0,0.00
2013-8-24,92.0,78.9,70.0,76.0,69.6,-99.9,93,76,56,30.07,29.98,7,1,0,0.00
2013-8-25,93.0,80.9,71.0,78.0,71.9,67.0,91,75,56,30.14,30.03,3,0,0,0.00
2013-8-26,94.0,81.2,71.0,77.0,71.8,69.0,95,75,52,30.09,29.97,4,0,0,0.00
2013-8-27,93.0,78.3,70.0,73.0,70.1,67.0,92,78,50,29.99,29.93,6,1,0,0.00
2013-8-28,94.0,85.9,73.0,74.0,72.5,70.0,90,66,51,29.98,29.93,5,1,0,0.00
2013-8-29,96.0,80.7,68.0,77.0,72.0,66.0,95,78,46,29.98,29.86,5,0,0,0.00
2013-8-30,100.0,82.5,69.0,76.0,71.7,67.0,94,73,40,29.89,29.75,0,0,0,0.00
2013-8-31,89.0,76.9,70.0,79.0,71.2,-99.9,94,85,68,29.83,29.73,0,0,0,0.00
2013-9-1,87.0,74.1,64.0,75.0,67.8,61.0,96,82,52,29.93,29.70,3,0,0,0.00
2013-9-2,82.0,68.4,58.0,66.0,61.0,56.0,96,79,52,30.03,29.93,1,0,0,0.00
2013-9-3,86.0,68.3,52.0,64.0,58.2,50.0,96,74,39,30.09,29.99,1,0,0,0.00
2013-9-4,86.0,69.8,56.0,68.0,61.7,54.0,96,78,44,30.14,30.02,0,0,0,0.00
2013-9-5,88.0,70.7,56.0,70.0,62.2,55.0,96,77,42,30.17,30.07,4,0,0,0.00
2013-9-6,92.0,76.5,66.0,69.0,66.0,62.0,93,73,45,30.09,29.92,0,0,0,0.00
2013-9-7,99.0,80.6,69.0,74.0,67.0,-99.9,88,68,41,29.93,29.78,0,0,0,0.00
2013-9-8,96.0,79.8,68.0,76.0,70.6,66.0,95,76,44,29.84,29.71,6,0,0,0.00
2013-9-9,97.0,83.0,70.0,70.0,66.0,62.0,84,60,35,29.86,29.78,6,1,0,0.00
2013-9-10,96.0,80.3,67.0,69.0,65.7,62.0,86,64,40,29.99,29.87,6,1,0,0.00
2013-9-11,95.0,78.9,65.0,73.0,67.3,61.0,91,70,41,30.05,29.96,2,0,0,0.00
2013-9-12,87.0,74.9,59.0,72.0,64.2,52.0,95,73,40,30.12,30.02,0,0,0,0.00
2013-9-13,79.0,63.6,50.0,58.0,51.3,48.0,93,68,36,30.19,30.04,0,0,0,0.00
2013-9-14,79.0,64.3,51.0,55.0,49.6,-99.9,92,63,40,30.09,29.91,6,1,0,0.00
2013-9-15,74.0,66.1,62.0,69.0,59.6,53.0,93,80,62,30.15,29.87,0,0,0,0.00
2013-9-16,63.0,59.8,57.0,59.0,57.8,56.0,96,93,87,30.27,30.15,0,0,0,0.00
2013-9-17,79.0,67.0,61.0,71.0,63.9,59.0,96,90,75,30.19,29.92,6,1,0,0.00
2013-9-18,67.0,66.1,66.0,65.0,64.1,64.0,93,93,93,29.94,29.93,0,0,0,0.00
2013-9-23,77.0,70.2,65.0,57.0,54.8,53.0,72,59,45,29.79,29.73,10,3,0,0.00
2013-9-24,73.0,64.5,58.0,63.0,57.8,55.0,93,79,70,29.84,29.71,6,0,0,0.00
2013-9-25,81.0,65.1,52.0,65.0,58.4,50.0,96,81,56,29.88,29.77,0,0,0,0.00
2013-9-26,85.0,71.3,59.0,64.0,61.0,57.0,94,73,46,29.87,29.78,9,2,0,0.00
2013-9-27,86.0,74.6,66.0,66.0,63.0,61.0,86,69,47,29.91,29.79,11,3,0,0.00
2013-9-28,74.0,64.0,49.0,65.0,56.1,-99.9,93,78,59,30.06,29.73,8,2,0,0.00
2013-9-29,75.0,57.2,41.0,55.0,47.0,40.0,96,73,38,30.10,29.93,0,0,0,0.00
2013-9-30,79.0,61.2,44.0,58.0,51.9,42.0,95,75,42,29.93,29.78,0,0,0,0.00
2013-10-1,76.0,67.6,62.0,65.0,62.1,59.0,91,83,69,29.92,29.88,0,0,0,0.00
2013-10-2,83.0,69.7,56.0,71.0,64.0,54.0,96,84,59,29.96,29.82,4,0,0,0.00
2013-10-3,83.0,72.6,63.0,73.0,67.5,61.0,95,85,67,29.88,29.67,10,2,0,0.00
2013-10-4,88.0,75.9,64.0,73.0,68.5,56.0,94,79,53,29.85,29.65,10,2,0,0.00
2013-10-5,60.0,53.0,44.0,56.0,40.2,36.0,88,63,44,29.99,29.85,3,0,0,0.00
2013-10-6,57.0,49.8,42.0,47.0,42.3,36.0,92,75,62,30.01,29.83,2,0,0,0.00
2013-10-7,74.0,54.1,38.0,49.0,43.8,36.0,94,73,33,30.14,29.99,0,0,0,0.00
2013-10-8,76.0,61.0,45.0,53.0,48.1,42.0,93,66,37,30.08,29.97,0,0,0,0.00
2013-10-9,76.0,62.2,49.0,55.0,50.3,46.0,91,67,40,30.07,29.98,9,1,0,0.00
2013-10-10,78.0,62.7,46.0,60.0,52.5,44.0,94,71,45,30.03,29.83,5,0,0,0.00
2013-10-11,75.0,65.4,56.0,66.0,59.2,52.0,92,80,68,29.85,29.71,9,3,0,0.00
2013-10-12,70.0,54.6,43.0,56.0,43.5,-99.9,95,72,33,30.26,29.83,0,0,0,0.00
2013-10-13,72.0,52.6,36.0,49.0,40.0,34.0,96,68,30,30.42,30.26,0,0,0,0.00
2013-10-14,69.0,57.3,47.0,60.0,46.2,37.0,92,68,45,30.31,29.82,11,4,0,0.00
2013-10-15,63.0,53.9,45.0,60.0,45.8,40.0,93,75,55,30.08,29.80,9,1,0,0.00
2013-10-16,60.0,50.8,46.0,45.0,42.1,40.0,87,73,54,30.09,29.97,2,0,0,0.00
2013-10-17,66.0,51.4,38.0,47.0,41.4,36.0,93,72,35,30.02,29.88,3,0,0,0.00
2013-10-18,47.0,40.3,36.0,41.0,36.8,34.0,93,87,76,30.15,30.03,1,0,0,0.00
2013-10-19,63.0,44.9,32.0,42.0,34.7,-99.9,95,73,38,30.11,29.87,5,0,0,0.00
2013-10-20,67.0,52.9,39.0,48.0,42.5,36.0,92,70,43,29.95,29.78,0,0,0,0.00
2013-10-21,56.0,45.3,35.0,42.0,35.2,31.0,91,70,43,30.13,29.96,2,0,0,0.00
2013-10-22,60.0,48.4,35.0,48.0,40.0,31.0,89,74,51,30.12,29.89,2,0,0,0.00
2013-10-23,52.0,39.7,28.0,39.0,33.1,26.0,95,79,55,30.20,30.05,4,0,0,0.00
2013-10-24,53.0,40.9,29.0,38.0,30.9,26.0,92,71,39,30.45,30.20,1,0,0,0.00
2013-10-25,58.0,47.0,22.0,36.0,29.4,20.0,94,54,34,30.48,30.14,6,2,0,0.00
2013-10-26,61.0,46.5,31.0,43.0,33.7,-99.9,91,65,37,30.20,30.07,3,0,0,0.00
2013-10-27,65.0,43.0,24.0,39.0,30.4,22.0,95,67,33,30.19,29.92,7,0,0,0.00
2013-10-28,69.0,48.6,31.0,53.0,38.6,-99.9,94,74,42,30.16,29.99,6,1,0,0.00
2013-10-29,61.0,54.7,48.0,60.0,52.3,41.0,95,91,69,30.16,29.92,13,1,0,0.00
2013-10-30,64.0,60.8,56.0,63.0,59.8,53.0,96,96,95,29.95,29.68,7,0,0,0.00
2013-10-31,56.0,48.7,45.0,54.0,46.7,41.0,97,93,79,29.71,29.54,0,0,0,0.00
2013-11-1,61.0,48.7,41.0,46.0,41.4,38.0,93,77,55,29.98,29.62,2,0,0,0.00
2013-11-2,58.0,45.1,36.0,42.0,36.3,-99.9,93,76,47,30.21,29.99,1,0,0,0.00
2013-11-3,59.0,47.5,34.0,41.0,36.8,32.0,95,69,44,30.17,29.87,14,6,0,0.00
2013-11-4,60.0,54.8,49.0,50.0,46.7,41.0,87,74,61,30.08,29.86,10,3,0,0.00
2013-11-5,60.0,55.2,42.0,59.0,53.3,40.0,95,93,87,30.08,29.81,11,3,0,0.00
2013-11-6,47.0,39.8,33.0,40.0,35.9,30.0,95,87,67,30.34,29.93,4,-12,0,0.00
2013-11-7,56.0,39.7,29.0,39.0,30.9,26.0,95,75,37,30.42,30.33,2,0,0,0.00
2013-11-8,65.0,48.2,27.0,40.0,33.4,25.0,94,61,33,30.35,29.82,19,5,0,0.00
2013-11-9,68.0,49.9,36.0,41.0,33.7,-99.9,91,59,30,30.32,29.93,8,0,0,0.00
2013-11-10,57.0,44.4,30.0,39.0,32.8,28.0,95,67,36,30.44,30.21,7,0,0,0.00
2013-11-11,55.0,42.7,25.0,50.0,35.9,18.0,89,77,67,30.71,30.14,8,3,0,0.00
2013-11-12,34.0,23.2,14.0,18.0,13.7,10.0,87,69,36,30.94,30.73,4,0,0,0.00
2013-11-13,50.0,34.5,16.0,23.0,18.8,12.0,86,56,29,30.73,30.18,11,4,0,0.00
2013-11-14,58.0,45.7,38.0,31.0,28.0,23.0,66,51,34,30.16,29.93,12,4,0,0.00
2013-11-15,58.0,47.2,32.0,45.0,37.2,27.0,88,69,51,29.96,29.72,9,3,0,0.00
2013-11-16,71.0,60.3,51.0,61.0,52.6,-99.9,95,79,62,29.71,29.36,18,8,0,0.00
2013-11-17,65.0,56.8,42.0,60.0,43.0,32.0,88,62,31,30.06,29.26,10,2,0,0.00
2013-11-18,57.0,40.1,31.0,36.0,31.5,29.0,92,74,34,30.31,30.06,0,0,0,0.00
2013-11-19,61.0,46.9,28.0,36.0,28.6,25.0,93,55,27,30.27,29.98,19,4,0,0.00
2013-11-20,53.0,45.6,40.0,39.0,35.0,27.0,86,68,36,29.98,29.84,12,4,0,0.00
2013-11-21,44.0,36.6,27.0,42.0,34.5,25.0,94,92,87,30.49,29.96,7,1,0,0.00
2013-11-22,28.0,25.2,22.0,25.0,22.2,19.0,93,88,84,30.71,30.50,0,0,0,0.00
2013-11-23,27.0,21.4,13.0,21.0,14.1,-99.9,89,76,60,30.88,30.67,8,1,0,0.00
2013-11-24,28.0,20.3,11.0,16.0,11.4,7.0,88,70,50,30.84,30.37,6,2,0,0.00
2013-11-25,42.0,31.5,26.0,28.0,21.7,16.0,90,68,53,30.37,30.19,7,1,0,0.00
2013-11-26,40.0,28.2,20.0,28.0,21.1,11.0,92,76,49,30.46,30.21,8,2,0,0.00
2013-11-27,33.0,23.5,12.0,17.0,13.3,8.0,88,66,46,30.50,30.18,6,1,0,0.00
2013-12-2,59.0,42.8,32.0,43.0,36.4,29.0,93,80,51,29.90,29.59,10,2,0,0.00
2013-12-3,60.0,43.8,32.0,46.0,38.9,30.0,95,84,59,29.63,29.51,8,0,0,0.00
2013-12-4,39.0,31.5,21.0,37.0,28.9,14.0,95,90,75,30.06,29.56,2,0,0,0.00
2013-12-5,21.0,17.6,14.0,15.0,10.1,7.0,83,71,64,30.48,30.10,4,1,0,0.00
2013-12-6,19.0,13.2,7.0,7.0,2.5,0.0,73,62,48,30.76,30.48,5,2,0,0.00
2013-12-7,22.0,11.7,0.0,7.0,0.4,-99.9,82,64,44,30.84,30.48,2,0,0,0.00
2013-12-8,22.0,18.6,12.0,19.0,14.4,7.0,91,84,59,30.48,30.06,3,0,0,0.00
2013-12-9,13.0,6.0,-5.0,10.0,0.6,-10.0,91,79,57,30.50,30.24,5,0,0,0.00
2013-12-10,32.0,21.2,3.0,22.0,12.6,-1.0,84,70,52,30.40,30.25,9,2,0,0.00
2013-12-11,26.0,15.9,1.0,21.0,9.2,-4.0,86,75,56,30.71,30.27,8,1,0,0.00
2013-12-12,42.0,22.2,3.0,26.0,14.2,-1.0,86,72,51,30.66,30.19,8,1,0,0.00
2013-12-13,38.0,31.7,23.0,34.0,28.3,19.0,94,87,71,30.19,29.89,7,2,0,0.00
2013-12-14,32.0,24.6,19.0,31.0,20.4,-99.9,95,87,80,30.27,29.97,7,2,0,0.00
2013-12-15,42.0,28.8,17.0,32.0,24.1,14.0,91,83,62,30.27,29.99,4,0,0,0.00
2013-12-16,56.0,31.1,20.0,38.0,26.3,18.0,94,84,45,30.20,29.99,6,0,0,0.00
2013-12-17,47.0,29.7,19.0,34.0,22.9,17.0,94,78,47,30.33,30.21,5,0,0,0.00
2013-12-18,63.0,42.9,22.0,37.0,30.2,18.0,89,64,35,30.25,29.77,13,4,0,0.00
2013-12-19,56.0,45.2,34.0,49.0,39.6,31.0,90,81,69,29.78,29.64,10,2,0,0.00
2013-12-20,35.0,23.7,20.0,32.0,21.4,17.0,93,91,88,30.00,29.75,6,2,0,0.00
2013-12-21,27.0,23.5,21.0,25.0,19.5,-99.9,93,89,87,29.98,29.72,6,0,0,0.00
2013-12-22,25.0,18.4,3.0,22.0,16.1,-2.0,94,91,84,30.45,29.81,1,0,0,0.00
2013-12-23,13.0,4.3,-6.0,6.0,-0.4,-11.0,89,81,64,30.72,30.45,2,0,0,0.00
2013-12-24,2.0,-0.4,-2.0,-1.0,-3.9,-6.0,86,85,84,30.70,30.68,0,0,0,0.00
2014-1-2,15.0,4.1,-6.0,4.0,-3.2,-10.0,81,71,61,30.59,30.53,0,0,0,0.00